{"data":{"norad_id":63126,"intl_designator":"2025-040B","name":"SUPERVIEW NEO-1 04","alt_names":[],"object_type":"PAYLOAD","status":"ACTIVE","operator":null,"country":"PRC","launch_date":"2025-02-27","launch_site_code":"JSC","launch_vehicle":null,"mission":null,"orbit_class":"UNKNOWN","rcs_meters":null,"size_class":null,"mass_kg":null,"dimensions":null,"purposes":[],"wikipedia_slug":null,"has_3d_model":false,"image_url":null,"decayed_at":null,"tle_current":{"epoch":"2026-05-24T17:24:27.298944Z","epoch_age_seconds":94860,"freshness":"FRESH","line1":"1 63126U 25040B   26144.72531596  .00000275  00000+0  15181-4 0  9997","line2":"2 63126  97.3499 259.7871 0001775  62.0103 298.1313 15.21596035 68628","mean_motion":15.21596035,"eccentricity":0.0001775,"inclination_deg":97.3499,"raan_deg":259.7871,"arg_perigee_deg":62.0103,"mean_anomaly_deg":298.1313,"bstar":1.5181e-5,"rev_number":6862,"period_min":94.637470582,"perigee_km":499.80488500548,"apogee_km":502.24698784791,"semimajor_km":6879.1629364267,"source":"CELESTRAK","updated_at":"2026-05-25T13:38:03.510811Z"}}}